Year,Month,Day,Hour,Minute,Value (Times are PST for temperature in C)
2008,07,25,00,00,12.90
2008,07,25,00,01,12.90
2008,07,25,00,02,12.90
2008,07,25,00,03,12.80
2008,07,25,00,04,12.80
2008,07,25,00,05,12.80
2008,07,25,00,06,12.90
2008,07,25,00,07,12.90
2008,07,25,00,08,12.90
2008,07,25,00,09,12.90
2008,07,25,00,10,12.90
2008,07,25,00,11,13.00
2008,07,25,00,12,13.00
2008,07,25,00,13,13.00
2008,07,25,00,14,13.10
2008,07,25,00,15,13.10
2008,07,25,00,16,13.10
2008,07,25,00,17,13.10
2008,07,25,00,18,13.10
2008,07,25,00,19,13.10
2008,07,25,00,20,13.10
2008,07,25,00,21,13.10
2008,07,25,00,22,13.20
2008,07,25,00,23,13.20
2008,07,25,00,24,13.10
2008,07,25,00,25,13.10
2008,07,25,00,26,13.10
2008,07,25,00,27,13.10
2008,07,25,00,28,13.10
2008,07,25,00,29,13.10
2008,07,25,00,30,13.10
2008,07,25,00,31,13.10
2008,07,25,00,32,13.10
2008,07,25,00,33,13.10
2008,07,25,00,34,13.10
2008,07,25,00,35,13.10
2008,07,25,00,36,13.20
2008,07,25,00,37,13.20
2008,07,25,00,38,13.20
2008,07,25,00,39,13.20
2008,07,25,00,40,13.20
2008,07,25,00,41,13.20
2008,07,25,00,42,13.20
2008,07,25,00,43,13.20
2008,07,25,00,44,13.20
2008,07,25,00,45,13.20
2008,07,25,00,46,13.20
2008,07,25,00,47,13.10
2008,07,25,00,48,13.10
2008,07,25,00,49,13.10
2008,07,25,00,50,13.10
2008,07,25,00,51,13.00
2008,07,25,00,52,13.00
2008,07,25,00,53,13.00
2008,07,25,00,54,13.00
2008,07,25,00,55,13.00
2008,07,25,00,56,13.00
2008,07,25,00,57,13.00
2008,07,25,00,58,12.90
2008,07,25,00,59,12.90
2008,07,25,01,00,12.90
2008,07,25,01,01,12.90
2008,07,25,01,02,12.90
2008,07,25,01,03,12.90
2008,07,25,01,04,12.90
2008,07,25,01,05,12.90
2008,07,25,01,06,12.90
2008,07,25,01,07,13.00
2008,07,25,01,08,13.00
2008,07,25,01,09,13.00
2008,07,25,01,10,13.00
2008,07,25,01,11,13.00
2008,07,25,01,12,13.00
2008,07,25,01,13,13.00
2008,07,25,01,14,13.10
2008,07,25,01,15,13.10
2008,07,25,01,16,13.10
2008,07,25,01,17,13.10
2008,07,25,01,18,13.10
2008,07,25,01,19,13.10
2008,07,25,01,20,13.10
2008,07,25,01,21,13.10
2008,07,25,01,22,13.00
2008,07,25,01,23,13.00
2008,07,25,01,24,13.00
2008,07,25,01,25,13.00
2008,07,25,01,26,13.00
2008,07,25,01,27,13.00
2008,07,25,01,28,13.00
2008,07,25,01,29,13.00
2008,07,25,01,30,13.00
2008,07,25,01,31,13.00
2008,07,25,01,32,12.90
2008,07,25,01,33,12.90
2008,07,25,01,34,12.90
2008,07,25,01,35,13.00
2008,07,25,01,36,13.00
2008,07,25,01,37,13.00
2008,07,25,01,38,13.00
2008,07,25,01,39,13.00
2008,07,25,01,40,12.90
2008,07,25,01,41,12.90
2008,07,25,01,42,12.90
2008,07,25,01,43,12.90
2008,07,25,01,44,12.90
2008,07,25,01,45,12.90
2008,07,25,01,46,12.90
2008,07,25,01,47,12.90
2008,07,25,01,48,12.90
2008,07,25,01,49,12.90
2008,07,25,01,50,12.90
2008,07,25,01,51,12.90
2008,07,25,01,52,12.90
2008,07,25,01,53,12.90
2008,07,25,01,54,12.90
2008,07,25,01,55,12.90
2008,07,25,01,56,12.90
2008,07,25,01,57,12.90
2008,07,25,01,58,12.90
2008,07,25,01,59,12.90
2008,07,25,02,00,12.90
2008,07,25,02,01,12.90
2008,07,25,02,02,12.90
2008,07,25,02,03,12.90
2008,07,25,02,04,12.90
2008,07,25,02,05,12.90
2008,07,25,02,06,12.90
2008,07,25,02,07,12.80
2008,07,25,02,08,12.80
2008,07,25,02,09,12.80
2008,07,25,02,10,12.80
2008,07,25,02,11,12.80
2008,07,25,02,12,12.80
2008,07,25,02,13,12.80
2008,07,25,02,14,12.80
2008,07,25,02,15,12.80
2008,07,25,02,16,12.70
2008,07,25,02,17,12.70
2008,07,25,02,18,12.70
2008,07,25,02,19,12.70
2008,07,25,02,20,12.60
2008,07,25,02,21,12.60
2008,07,25,02,22,12.60
2008,07,25,02,23,12.60
2008,07,25,02,24,12.50
2008,07,25,02,25,12.50
2008,07,25,02,26,12.50
2008,07,25,02,27,12.40
2008,07,25,02,28,12.40
2008,07,25,02,29,12.30
2008,07,25,02,30,12.30
2008,07,25,02,31,12.30
2008,07,25,02,32,12.30
2008,07,25,02,33,12.30
2008,07,25,02,34,12.30
2008,07,25,02,35,12.30
2008,07,25,02,36,12.30
2008,07,25,02,37,12.30
2008,07,25,02,38,12.30
2008,07,25,02,39,12.30
2008,07,25,02,40,12.30
2008,07,25,02,41,12.30
2008,07,25,02,42,12.30
2008,07,25,02,43,12.30
2008,07,25,02,44,12.30
2008,07,25,02,45,12.30
2008,07,25,02,46,12.20
2008,07,25,02,47,12.20
2008,07,25,02,48,12.20
2008,07,25,02,49,12.20
2008,07,25,02,50,12.20
2008,07,25,02,51,12.10
2008,07,25,02,52,12.10
2008,07,25,02,53,12.10
2008,07,25,02,54,12.10
2008,07,25,02,55,12.00
2008,07,25,02,56,12.00
2008,07,25,02,57,12.00
2008,07,25,02,58,12.00
2008,07,25,02,59,12.00
2008,07,25,03,00,12.00
2008,07,25,03,01,12.00
2008,07,25,03,02,12.00
2008,07,25,03,03,12.00
2008,07,25,03,04,11.90
2008,07,25,03,05,11.90
2008,07,25,03,06,11.90
2008,07,25,03,07,11.80
2008,07,25,03,08,11.80
2008,07,25,03,09,11.80
2008,07,25,03,10,11.80
2008,07,25,03,11,11.80
2008,07,25,03,12,11.80
2008,07,25,03,13,11.80
2008,07,25,03,14,11.80
2008,07,25,03,15,11.80
2008,07,25,03,16,11.80
2008,07,25,03,17,11.80
2008,07,25,03,18,11.80
2008,07,25,03,19,11.80
2008,07,25,03,20,11.80
2008,07,25,03,21,11.80
2008,07,25,03,22,11.80
2008,07,25,03,23,11.80
2008,07,25,03,24,11.80
2008,07,25,03,25,11.80
2008,07,25,03,26,11.80
2008,07,25,03,27,11.80
2008,07,25,03,28,11.80
2008,07,25,03,29,11.80
2008,07,25,03,30,11.80
2008,07,25,03,31,11.80
2008,07,25,03,32,11.80
2008,07,25,03,33,11.70
2008,07,25,03,34,11.70
2008,07,25,03,35,11.70
2008,07,25,03,36,11.70
2008,07,25,03,37,11.60
2008,07,25,03,38,11.60
2008,07,25,03,39,11.60
2008,07,25,03,40,11.60
2008,07,25,03,41,11.40
2008,07,25,03,42,11.40
2008,07,25,03,43,11.40
2008,07,25,03,44,11.40
2008,07,25,03,45,11.30
2008,07,25,03,46,11.30
2008,07,25,03,47,11.30
2008,07,25,03,48,11.30
2008,07,25,03,49,11.20
2008,07,25,03,50,11.20
2008,07,25,03,51,11.20
2008,07,25,03,52,11.20
2008,07,25,03,53,11.20
2008,07,25,03,54,11.10
2008,07,25,03,55,11.10
2008,07,25,03,56,11.10
2008,07,25,03,57,11.10
2008,07,25,03,58,11.10
2008,07,25,03,59,11.00
2008,07,25,04,00,10.90
2008,07,25,04,01,10.90
2008,07,25,04,02,10.90
2008,07,25,04,03,10.90
2008,07,25,04,04,10.90
2008,07,25,04,05,10.90
2008,07,25,04,06,10.90
2008,07,25,04,07,10.80
2008,07,25,04,08,10.80
2008,07,25,04,09,10.80
2008,07,25,04,10,10.80
2008,07,25,04,11,10.70
2008,07,25,04,12,10.70
2008,07,25,04,13,10.70
2008,07,25,04,14,10.70
2008,07,25,04,15,10.70
2008,07,25,04,16,10.60
2008,07,25,04,17,10.60
2008,07,25,04,18,10.60
2008,07,25,04,19,10.60
2008,07,25,04,20,10.60
2008,07,25,04,21,10.60
2008,07,25,04,22,10.60
2008,07,25,04,23,10.60
2008,07,25,04,24,10.60
2008,07,25,04,25,10.60
2008,07,25,04,26,10.60
2008,07,25,04,27,10.60
2008,07,25,04,28,10.40
2008,07,25,04,29,10.40
2008,07,25,04,30,10.40
2008,07,25,04,31,10.40
2008,07,25,04,32,10.40
2008,07,25,04,33,10.40
2008,07,25,04,34,10.40
2008,07,25,04,35,10.40
2008,07,25,04,36,10.40
2008,07,25,04,37,10.40
2008,07,25,04,38,10.40
2008,07,25,04,39,10.40
2008,07,25,04,40,10.40
2008,07,25,04,41,10.40
2008,07,25,04,42,10.40
2008,07,25,04,43,10.40
2008,07,25,04,44,10.40
2008,07,25,04,45,10.40
2008,07,25,04,46,10.40
2008,07,25,04,47,10.40
2008,07,25,04,48,10.40
2008,07,25,04,49,10.40
2008,07,25,04,50,10.40
2008,07,25,04,51,10.40
2008,07,25,04,52,10.40
2008,07,25,04,53,10.40
2008,07,25,04,54,10.40
2008,07,25,04,55,10.40
2008,07,25,04,56,10.40
2008,07,25,04,57,10.40
2008,07,25,04,58,10.40
2008,07,25,04,59,10.40
2008,07,25,05,00,10.40
2008,07,25,05,01,10.40
2008,07,25,05,02,10.40
2008,07,25,05,03,10.40
2008,07,25,05,04,10.40
2008,07,25,05,05,10.40
2008,07,25,05,06,10.40
2008,07,25,05,07,10.40
2008,07,25,05,08,10.40
2008,07,25,05,09,10.60
2008,07,25,05,10,10.60
2008,07,25,05,11,10.60
2008,07,25,05,12,10.60
2008,07,25,05,13,10.60
2008,07,25,05,14,10.60
2008,07,25,05,15,10.60
2008,07,25,05,16,10.60
2008,07,25,05,17,10.60
2008,07,25,05,18,10.60
2008,07,25,05,19,10.60
2008,07,25,05,20,10.60
2008,07,25,05,21,10.60
2008,07,25,05,22,10.60
2008,07,25,05,23,10.60
2008,07,25,05,24,10.60
2008,07,25,05,25,10.60
2008,07,25,05,26,10.60
2008,07,25,05,27,10.60
2008,07,25,05,28,10.60
2008,07,25,05,29,10.60
2008,07,25,05,30,10.60
2008,07,25,05,31,10.60
2008,07,25,05,32,10.60
2008,07,25,05,33,10.60
2008,07,25,05,34,10.60
2008,07,25,05,35,10.60
2008,07,25,05,36,10.60
2008,07,25,05,37,10.60
2008,07,25,05,38,10.60
2008,07,25,05,39,10.60
2008,07,25,05,40,10.60
2008,07,25,05,41,10.60
2008,07,25,05,42,10.60
2008,07,25,05,43,10.60
2008,07,25,05,44,10.60
2008,07,25,05,45,10.60
2008,07,25,05,46,10.60
2008,07,25,05,47,10.60
2008,07,25,05,48,10.60
2008,07,25,05,49,10.60
2008,07,25,05,50,10.60
2008,07,25,05,51,10.60
2008,07,25,05,52,10.60
2008,07,25,05,53,10.60
2008,07,25,05,54,10.60
2008,07,25,05,55,10.60
2008,07,25,05,56,10.60
2008,07,25,05,57,10.60
2008,07,25,05,58,10.60
2008,07,25,05,59,10.60
2008,07,25,06,00,10.60
2008,07,25,06,01,10.60
2008,07,25,06,02,10.60
2008,07,25,06,03,10.70
2008,07,25,06,04,10.70
2008,07,25,06,05,10.70
2008,07,25,06,06,10.70
2008,07,25,06,07,10.70
2008,07,25,06,08,10.80
2008,07,25,06,09,10.80
2008,07,25,06,10,10.80
2008,07,25,06,11,10.80
2008,07,25,06,12,10.80
2008,07,25,06,13,10.80
2008,07,25,06,14,10.80
2008,07,25,06,15,10.80
2008,07,25,06,16,10.80
2008,07,25,06,17,10.80
2008,07,25,06,18,10.80
2008,07,25,06,19,10.80
2008,07,25,06,20,10.80
2008,07,25,06,21,10.80
2008,07,25,06,22,10.80
2008,07,25,06,23,10.80
2008,07,25,06,24,10.80
2008,07,25,06,25,10.80
2008,07,25,06,26,10.80
2008,07,25,06,27,10.90
2008,07,25,06,28,10.90
2008,07,25,06,29,10.90
2008,07,25,06,30,10.90
2008,07,25,06,31,10.90
2008,07,25,06,32,10.90
2008,07,25,06,33,10.90
2008,07,25,06,34,10.90
2008,07,25,06,35,10.90
2008,07,25,06,36,10.90
2008,07,25,06,37,10.90
2008,07,25,06,38,10.90
2008,07,25,06,39,10.90
2008,07,25,06,40,11.10
2008,07,25,06,41,11.10
2008,07,25,06,42,11.10
2008,07,25,06,43,11.10
2008,07,25,06,44,11.10
2008,07,25,06,45,11.10
2008,07,25,06,46,11.10
2008,07,25,06,47,11.10
2008,07,25,06,48,11.10
2008,07,25,06,49,11.10
2008,07,25,06,50,11.10
2008,07,25,06,51,11.10
2008,07,25,06,52,11.20
2008,07,25,06,53,11.20
2008,07,25,06,54,11.20
2008,07,25,06,55,11.20
2008,07,25,06,56,11.20
2008,07,25,06,57,11.30
2008,07,25,06,58,11.30
2008,07,25,06,59,11.30
2008,07,25,07,00,11.30
2008,07,25,07,01,11.30
2008,07,25,07,02,11.30
2008,07,25,07,03,11.40
2008,07,25,07,04,11.40
2008,07,25,07,05,11.40
2008,07,25,07,06,11.40
2008,07,25,07,07,11.40
2008,07,25,07,08,11.40
2008,07,25,07,09,11.40
2008,07,25,07,10,11.40
2008,07,25,07,11,11.40
2008,07,25,07,12,11.40
2008,07,25,07,13,11.40
2008,07,25,07,14,11.40
2008,07,25,07,15,11.40
2008,07,25,07,16,11.40
2008,07,25,07,17,11.40
2008,07,25,07,18,11.40
2008,07,25,07,19,11.40
2008,07,25,07,20,11.40
2008,07,25,07,21,11.40
2008,07,25,07,22,11.40
2008,07,25,07,23,11.40
2008,07,25,07,24,11.40
2008,07,25,07,25,11.50
2008,07,25,07,26,11.60
2008,07,25,07,27,11.60
2008,07,25,07,28,11.60
2008,07,25,07,29,11.60
2008,07,25,07,30,11.60
2008,07,25,07,31,11.60
2008,07,25,07,32,11.60
2008,07,25,07,33,11.60
2008,07,25,07,34,11.60
2008,07,25,07,35,11.60
2008,07,25,07,36,11.60
2008,07,25,07,37,11.60
2008,07,25,07,38,11.60
2008,07,25,07,39,11.60
2008,07,25,07,40,11.70
2008,07,25,07,41,11.70
2008,07,25,07,42,11.70
2008,07,25,07,43,11.80
2008,07,25,07,44,11.80
2008,07,25,07,45,11.80
2008,07,25,07,46,11.70
2008,07,25,07,47,11.70
2008,07,25,07,48,11.70
2008,07,25,07,49,11.70
2008,07,25,07,50,11.70
2008,07,25,07,51,11.70
2008,07,25,07,52,11.70
2008,07,25,07,53,11.60
2008,07,25,07,54,11.60
2008,07,25,07,55,11.60
2008,07,25,07,56,11.60
2008,07,25,07,57,11.60
2008,07,25,07,58,11.60
2008,07,25,07,59,11.60
2008,07,25,08,00,11.60
2008,07,25,08,01,11.70
2008,07,25,08,02,11.70
2008,07,25,08,03,11.70
2008,07,25,08,04,11.70
2008,07,25,08,05,11.70
2008,07,25,08,06,11.70
2008,07,25,08,07,11.70
2008,07,25,08,08,11.70
2008,07,25,08,09,11.80
2008,07,25,08,10,11.80
2008,07,25,08,11,11.80
2008,07,25,08,12,11.80
2008,07,25,08,13,11.80
2008,07,25,08,14,11.80
2008,07,25,08,15,11.80
2008,07,25,08,16,11.90
2008,07,25,08,17,11.90
2008,07,25,08,18,12.00
2008,07,25,08,19,12.00
2008,07,25,08,20,12.00
2008,07,25,08,21,12.10
2008,07,25,08,22,12.20
2008,07,25,08,23,12.20
2008,07,25,08,24,12.20
2008,07,25,08,25,12.20
2008,07,25,08,26,12.20
2008,07,25,08,27,12.20
2008,07,25,08,28,12.20
2008,07,25,08,29,12.20
2008,07,25,08,30,12.20
2008,07,25,08,31,12.20
2008,07,25,08,32,12.30
2008,07,25,08,33,12.30
2008,07,25,08,34,12.30
2008,07,25,08,35,12.30
2008,07,25,08,36,12.30
2008,07,25,08,37,12.40
2008,07,25,08,38,12.40
2008,07,25,08,39,12.40
2008,07,25,08,40,12.40
2008,07,25,08,41,12.30
2008,07,25,08,42,12.30
2008,07,25,08,43,12.30
2008,07,25,08,44,12.30
2008,07,25,08,45,12.40
2008,07,25,08,46,12.40
2008,07,25,08,47,12.40
2008,07,25,08,48,12.40
2008,07,25,08,49,12.40
2008,07,25,08,50,12.40
2008,07,25,08,51,12.50
2008,07,25,08,52,12.50
2008,07,25,08,53,12.60
2008,07,25,08,54,12.60
2008,07,25,08,55,12.70
2008,07,25,08,56,12.70
2008,07,25,08,57,12.80
2008,07,25,08,58,12.80
2008,07,25,08,59,12.80
2008,07,25,09,00,12.80
2008,07,25,09,01,12.80
2008,07,25,09,02,12.90
2008,07,25,09,03,12.90
2008,07,25,09,04,13.00
2008,07,25,09,05,13.10
2008,07,25,09,06,13.10
2008,07,25,09,07,13.10
2008,07,25,09,08,13.00
2008,07,25,09,09,12.90
2008,07,25,09,10,12.90
2008,07,25,09,11,12.90
2008,07,25,09,12,12.90
2008,07,25,09,13,12.90
2008,07,25,09,14,12.90
2008,07,25,09,15,12.90
2008,07,25,09,16,12.90
2008,07,25,09,17,12.90
2008,07,25,09,18,12.90
2008,07,25,09,19,13.00
2008,07,25,09,20,13.00
2008,07,25,09,21,13.10
2008,07,25,09,22,13.10
2008,07,25,09,23,13.20
2008,07,25,09,24,13.20
2008,07,25,09,25,13.20
2008,07,25,09,26,13.20
2008,07,25,09,27,13.20
2008,07,25,09,28,13.20
2008,07,25,09,29,13.30
2008,07,25,09,30,13.30
2008,07,25,09,31,13.30
2008,07,25,09,32,13.40
2008,07,25,09,33,13.50
2008,07,25,09,34,13.60
2008,07,25,09,35,13.60
2008,07,25,09,36,13.70
2008,07,25,09,37,13.70
2008,07,25,09,38,13.70
2008,07,25,09,39,13.70
2008,07,25,09,40,13.70
2008,07,25,09,41,13.70
2008,07,25,09,42,13.70
2008,07,25,09,43,13.70
2008,07,25,09,44,13.70
2008,07,25,09,45,13.70
2008,07,25,09,46,13.60
2008,07,25,09,47,13.50
2008,07,25,09,48,13.50
2008,07,25,09,49,13.40
2008,07,25,09,50,13.40
2008,07,25,09,51,13.40
2008,07,25,09,52,13.40
2008,07,25,09,53,13.40
2008,07,25,09,54,13.30
2008,07,25,09,55,13.30
2008,07,25,09,56,13.30
2008,07,25,09,57,13.30
2008,07,25,09,58,13.30
2008,07,25,09,59,13.30
2008,07,25,10,00,13.30
2008,07,25,10,01,13.30
2008,07,25,10,02,13.30
2008,07,25,10,03,13.30
2008,07,25,10,04,13.30
2008,07,25,10,05,13.30
2008,07,25,10,06,13.30
2008,07,25,10,07,13.30
2008,07,25,10,08,13.30
2008,07,25,10,09,13.30
2008,07,25,10,10,13.30
2008,07,25,10,11,13.30
2008,07,25,10,12,13.30
2008,07,25,10,13,13.30
2008,07,25,10,14,13.30
2008,07,25,10,15,13.40
2008,07,25,10,16,13.40
2008,07,25,10,17,13.40
2008,07,25,10,18,13.50
2008,07,25,10,19,13.50
2008,07,25,10,20,13.50
2008,07,25,10,21,13.50
2008,07,25,10,22,13.50
2008,07,25,10,23,13.60
2008,07,25,10,24,13.60
2008,07,25,10,25,13.50
2008,07,25,10,26,13.50
2008,07,25,10,27,13.40
2008,07,25,10,28,13.40
2008,07,25,10,29,13.40
2008,07,25,10,30,13.30
2008,07,25,10,31,13.30
2008,07,25,10,32,13.30
2008,07,25,10,33,13.30
2008,07,25,10,34,13.30
2008,07,25,10,35,13.20
2008,07,25,10,36,13.20
2008,07,25,10,37,13.30
2008,07,25,10,38,13.30
2008,07,25,10,39,13.30
2008,07,25,10,40,13.30
2008,07,25,10,41,13.20
2008,07,25,10,42,13.10
2008,07,25,10,43,13.10
2008,07,25,10,44,13.00
2008,07,25,10,45,13.00
2008,07,25,10,46,13.00
2008,07,25,10,47,12.90
2008,07,25,10,48,12.90
2008,07,25,10,49,12.90
2008,07,25,10,50,12.90
2008,07,25,10,51,12.90
2008,07,25,10,52,12.90
2008,07,25,10,53,12.90
2008,07,25,10,54,12.90
2008,07,25,10,55,12.90
2008,07,25,10,56,13.00
2008,07,25,10,57,13.00
2008,07,25,10,58,13.00
2008,07,25,10,59,13.00
2008,07,25,11,00,12.90
2008,07,25,11,01,12.90
2008,07,25,11,02,12.90
2008,07,25,11,03,12.80
2008,07,25,11,04,12.80
2008,07,25,11,05,12.80
2008,07,25,11,06,12.80
2008,07,25,11,07,12.80
2008,07,25,11,08,12.80
2008,07,25,11,09,12.80
2008,07,25,11,10,12.80
2008,07,25,11,11,12.90
2008,07,25,11,12,12.90
2008,07,25,11,13,12.90
2008,07,25,11,14,12.90
2008,07,25,11,15,13.00
2008,07,25,11,16,13.00
2008,07,25,11,17,13.00
2008,07,25,11,18,13.00
2008,07,25,11,19,13.00
2008,07,25,11,20,13.00
2008,07,25,11,21,13.00
2008,07,25,11,22,13.00
2008,07,25,11,23,13.00
2008,07,25,11,24,13.00
2008,07,25,11,25,13.00
2008,07,25,11,26,13.00
2008,07,25,11,27,13.00
2008,07,25,11,28,13.00
2008,07,25,11,29,13.00
2008,07,25,11,30,13.00
2008,07,25,11,31,13.10
2008,07,25,11,32,13.10
2008,07,25,11,33,13.20
2008,07,25,11,34,13.20
2008,07,25,11,35,13.20
2008,07,25,11,36,13.30
2008,07,25,11,37,13.30
2008,07,25,11,38,13.30
2008,07,25,11,39,13.30
2008,07,25,11,40,13.30
2008,07,25,11,41,13.30
2008,07,25,11,42,13.40
2008,07,25,11,43,13.50
2008,07,25,11,44,13.50
2008,07,25,11,45,13.60
2008,07,25,11,46,13.60
2008,07,25,11,47,13.60
2008,07,25,11,48,13.60
2008,07,25,11,49,13.70
2008,07,25,11,50,13.70
2008,07,25,11,51,13.70
2008,07,25,11,52,13.70
2008,07,25,11,53,13.70
2008,07,25,11,54,13.70
2008,07,25,11,55,13.70
2008,07,25,11,56,13.80
2008,07,25,11,57,13.80
2008,07,25,11,58,13.80
2008,07,25,11,59,13.80
2008,07,25,12,00,13.80
2008,07,25,12,01,13.80
2008,07,25,12,02,13.80
2008,07,25,12,03,13.80
2008,07,25,12,04,13.90
2008,07,25,12,05,13.90
2008,07,25,12,06,14.00
2008,07,25,12,07,14.00
2008,07,25,12,08,14.00
2008,07,25,12,09,14.00
2008,07,25,12,10,14.00
2008,07,25,12,11,14.10
2008,07,25,12,12,14.10
2008,07,25,12,13,14.10
2008,07,25,12,14,14.20
2008,07,25,12,15,14.10
2008,07,25,12,16,14.20
2008,07,25,12,17,14.10
2008,07,25,12,18,14.10
2008,07,25,12,19,14.20
2008,07,25,12,20,14.20
2008,07,25,12,21,14.20
2008,07,25,12,22,14.20
2008,07,25,12,23,14.20
2008,07,25,12,24,14.20
2008,07,25,12,25,14.30
2008,07,25,12,26,14.30
2008,07,25,12,27,14.30
2008,07,25,12,28,14.30
2008,07,25,12,29,14.20
2008,07,25,12,30,14.20
2008,07,25,12,31,14.20
2008,07,25,12,32,14.20
2008,07,25,12,33,14.20
2008,07,25,12,34,14.30
2008,07,25,12,35,14.40
2008,07,25,12,36,14.50
2008,07,25,12,37,14.50
2008,07,25,12,38,14.60
2008,07,25,12,39,14.60
2008,07,25,12,40,14.60
2008,07,25,12,41,14.60
2008,07,25,12,42,14.60
2008,07,25,12,43,14.80
2008,07,25,12,44,14.80
2008,07,25,12,45,14.70
2008,07,25,12,46,14.70
2008,07,25,12,47,14.60
2008,07,25,12,48,14.50
2008,07,25,12,49,14.40
2008,07,25,12,50,14.30
2008,07,25,12,51,14.40
2008,07,25,12,52,14.50
2008,07,25,12,53,14.50
2008,07,25,12,54,14.70
2008,07,25,12,55,14.80
2008,07,25,12,56,14.90
2008,07,25,12,57,14.90
2008,07,25,12,58,15.00
2008,07,25,12,59,15.00
2008,07,25,13,00,15.10
2008,07,25,13,01,15.30
2008,07,25,13,02,15.30
2008,07,25,13,03,15.30
2008,07,25,13,04,15.30
2008,07,25,13,05,15.30
2008,07,25,13,06,15.30
2008,07,25,13,07,15.30
2008,07,25,13,08,15.30
2008,07,25,13,09,15.20
2008,07,25,13,10,15.20
2008,07,25,13,11,15.30
2008,07,25,13,12,15.30
2008,07,25,13,13,15.30
2008,07,25,13,14,15.40
2008,07,25,13,15,15.50
2008,07,25,13,16,15.60
2008,07,25,13,17,15.60
2008,07,25,13,18,15.60
2008,07,25,13,19,15.60
2008,07,25,13,20,15.60
2008,07,25,13,21,15.70
2008,07,25,13,22,15.70
2008,07,25,13,23,15.70
2008,07,25,13,24,15.70
2008,07,25,13,25,15.70
2008,07,25,13,26,15.70
2008,07,25,13,27,15.70
2008,07,25,13,28,15.70
2008,07,25,13,29,15.80
2008,07,25,13,30,15.80
2008,07,25,13,31,15.80
2008,07,25,13,32,15.80
2008,07,25,13,33,15.90
2008,07,25,13,34,15.90
2008,07,25,13,35,15.80
2008,07,25,13,36,15.80
2008,07,25,13,37,15.70
2008,07,25,13,38,15.60
2008,07,25,13,39,15.60
2008,07,25,13,40,15.50
2008,07,25,13,41,15.50
2008,07,25,13,42,15.60
2008,07,25,13,43,15.60
2008,07,25,13,44,15.70
2008,07,25,13,45,15.70
2008,07,25,13,46,15.70
2008,07,25,13,47,15.70
2008,07,25,13,48,15.70
2008,07,25,13,49,15.70
2008,07,25,13,50,15.60
2008,07,25,13,51,15.60
2008,07,25,13,52,15.60
2008,07,25,13,53,15.60
2008,07,25,13,54,15.70
2008,07,25,13,55,15.70
2008,07,25,13,56,15.60
2008,07,25,13,57,15.50
2008,07,25,13,58,15.50
2008,07,25,13,59,15.60
2008,07,25,14,00,15.50
2008,07,25,14,01,15.50
2008,07,25,14,02,15.50
2008,07,25,14,03,15.40
2008,07,25,14,04,15.40
2008,07,25,14,05,15.40
2008,07,25,14,06,15.40
2008,07,25,14,07,15.40
2008,07,25,14,08,15.30
2008,07,25,14,09,15.30
2008,07,25,14,10,15.30
2008,07,25,14,11,15.30
2008,07,25,14,12,15.30
2008,07,25,14,13,15.20
2008,07,25,14,14,15.20
2008,07,25,14,15,15.10
2008,07,25,14,16,15.10
2008,07,25,14,17,15.00
2008,07,25,14,18,15.00
2008,07,25,14,19,15.00
2008,07,25,14,20,15.00
2008,07,25,14,21,15.00
2008,07,25,14,22,15.10
2008,07,25,14,23,15.10
2008,07,25,14,24,15.20
2008,07,25,14,25,15.20
2008,07,25,14,26,15.20
2008,07,25,14,27,15.30
2008,07,25,14,28,15.40
2008,07,25,14,29,15.40
2008,07,25,14,30,15.50
2008,07,25,14,31,15.50
2008,07,25,14,32,15.50
2008,07,25,14,33,15.50
2008,07,25,14,34,15.60
2008,07,25,14,35,15.60
2008,07,25,14,36,15.70
2008,07,25,14,37,15.70
2008,07,25,14,38,15.80
2008,07,25,14,39,16.00
2008,07,25,14,40,16.30
2008,07,25,14,41,16.40
2008,07,25,14,42,16.30
2008,07,25,14,43,16.20
2008,07,25,14,44,16.00
2008,07,25,14,45,15.80
2008,07,25,14,46,15.60
2008,07,25,14,47,15.50
2008,07,25,14,48,15.30
2008,07,25,14,49,15.20
2008,07,25,14,50,15.10
2008,07,25,14,51,15.00
2008,07,25,14,52,14.80
2008,07,25,14,53,14.70
2008,07,25,14,54,14.60
2008,07,25,14,55,14.50
2008,07,25,14,56,14.50
2008,07,25,14,57,14.50
2008,07,25,14,58,14.50
2008,07,25,14,59,14.50
2008,07,25,15,00,14.50
2008,07,25,15,01,14.50
2008,07,25,15,02,14.60
2008,07,25,15,03,14.50
2008,07,25,15,04,14.50
2008,07,25,15,05,14.50
2008,07,25,15,06,14.60
2008,07,25,15,07,14.60
2008,07,25,15,08,14.60
2008,07,25,15,09,14.60
2008,07,25,15,10,14.60
2008,07,25,15,11,14.70
2008,07,25,15,12,14.70
2008,07,25,15,13,14.80
2008,07,25,15,14,14.90
2008,07,25,15,15,15.00
2008,07,25,15,16,15.10
2008,07,25,15,17,15.20
2008,07,25,15,18,15.30
2008,07,25,15,19,15.50
2008,07,25,15,20,15.60
2008,07,25,15,21,15.80
2008,07,25,15,22,16.00
2008,07,25,15,23,16.10
2008,07,25,15,24,16.20
2008,07,25,15,25,16.30
2008,07,25,15,26,16.30
2008,07,25,15,27,16.30
2008,07,25,15,28,16.40
2008,07,25,15,29,16.40
2008,07,25,15,30,16.40
2008,07,25,15,31,16.60
2008,07,25,15,32,16.70
2008,07,25,15,33,16.70
2008,07,25,15,34,16.70
2008,07,25,15,35,16.70
2008,07,25,15,36,16.70
2008,07,25,15,37,16.80
2008,07,25,15,38,16.80
2008,07,25,15,39,16.80
2008,07,25,15,40,16.70
2008,07,25,15,41,16.70
2008,07,25,15,42,16.60
2008,07,25,15,43,16.60
2008,07,25,15,44,16.60
2008,07,25,15,45,16.50
2008,07,25,15,46,16.40
2008,07,25,15,47,16.40
2008,07,25,15,48,16.40
2008,07,25,15,49,16.60
2008,07,25,15,50,16.60
2008,07,25,15,51,16.70
2008,07,25,15,52,16.80
2008,07,25,15,53,16.80
2008,07,25,15,54,16.90
2008,07,25,15,55,17.00
2008,07,25,15,56,17.10
2008,07,25,15,57,17.10
2008,07,25,15,58,17.20
2008,07,25,15,59,17.20
2008,07,25,16,00,17.30
2008,07,25,16,01,17.30
2008,07,25,16,02,17.40
2008,07,25,16,03,17.40
2008,07,25,16,04,17.40
2008,07,25,16,05,17.40
2008,07,25,16,06,17.40
2008,07,25,16,07,17.40
2008,07,25,16,08,17.40
2008,07,25,16,09,17.40
2008,07,25,16,10,17.40
2008,07,25,16,11,17.40
2008,07,25,16,12,17.40
2008,07,25,16,13,17.50
2008,07,25,16,14,17.60
2008,07,25,16,15,17.70
2008,07,25,16,16,17.90
2008,07,25,16,17,18.20
2008,07,25,16,18,18.40
2008,07,25,16,19,18.70
2008,07,25,16,20,18.90
2008,07,25,16,21,19.10
2008,07,25,16,22,19.10
2008,07,25,16,23,19.30
2008,07,25,16,24,19.40
2008,07,25,16,25,19.40
2008,07,25,16,26,19.40
2008,07,25,16,27,19.40
2008,07,25,16,28,19.50
2008,07,25,16,29,19.50
2008,07,25,16,30,19.60
2008,07,25,16,31,19.60
2008,07,25,16,32,19.70
2008,07,25,16,33,19.80
2008,07,25,16,34,19.90
2008,07,25,16,35,19.90
2008,07,25,16,36,19.90
2008,07,25,16,37,19.90
2008,07,25,16,38,19.90
2008,07,25,16,39,19.90
2008,07,25,16,40,19.80
2008,07,25,16,41,19.70
2008,07,25,16,42,19.60
2008,07,25,16,43,19.50
2008,07,25,16,44,19.40
2008,07,25,16,45,19.40
2008,07,25,16,46,19.30
2008,07,25,16,47,19.20
2008,07,25,16,48,19.10
2008,07,25,16,49,19.10
2008,07,25,16,50,19.10
2008,07,25,16,51,19.10
2008,07,25,16,52,19.10
2008,07,25,16,53,19.10
2008,07,25,16,54,19.10
2008,07,25,16,55,19.10
2008,07,25,16,56,19.20
2008,07,25,16,57,19.30
2008,07,25,16,58,19.30
2008,07,25,16,59,19.30
2008,07,25,17,00,19.30
2008,07,25,17,01,19.30
2008,07,25,17,02,19.30
2008,07,25,17,03,19.30
2008,07,25,17,04,19.40
2008,07,25,17,05,19.40
2008,07,25,17,06,19.40
2008,07,25,17,07,19.50
2008,07,25,17,08,19.50
2008,07,25,17,09,19.50
2008,07,25,17,10,19.50
2008,07,25,17,11,19.50
2008,07,25,17,12,19.50
2008,07,25,17,13,19.50
2008,07,25,17,14,19.50
2008,07,25,17,15,19.40
2008,07,25,17,16,19.40
2008,07,25,17,17,19.30
2008,07,25,17,18,19.20
2008,07,25,17,19,19.10